Wind_Speed
39 39 39 40 40 42 44 45 45 44 43 43 43 42 40 40 40 39 39 39 40 40 41 41 41 42 42 42 42 43 43 44 45 46 47 47 48 48 47 47 47 48 48 48
38 40 39 39 40 41 42 43 43 43 43 42 42 42 40 39 39 39 38 38 38 39 40 40 40 41 42 42 42 42 43 44 45 46 46 47 47 47 47 47 47 47 47 48
36 39 41 41 39 39 39 40 41 42 40 40 40 39 39 38 38 38 38 37 37 38 39 39 40 40 41 41 42 42 43 44 45 46 46 46 46 46 46 47 47 47 48 49
34 35 38 38 38 38 38 38 39 40 39 39 40 39 39 39 39 38 38 38 38 38 38 39 40 40 40 41 42 43 43 44 45 45 46 46 46 47 47 47 48 48 48 48
33 33 35 35 35 36 37 37 37 38 39 39 40 40 40 39 40 40 39 39 39 39 39 40 41 41 41 41 42 42 43 44 45 46 46 45 45 46 47 47 47 47 48 48
31 33 33 33 32 33 35 36 36 37 37 38 39 40 39 39 40 41 40 40 40 40 41 41 42 42 43 43 43 43 44 44 45 45 45 45 45 46 46 47 47 47 47 47
30 31 32 32 31 32 33 34 35 36 37 37 37 38 38 38 39 40 41 41 41 41 42 42 42 42 42 42 42 42 43 43 43 43 43 44 44 45 46 46 46 46 46 46
30 31 31 30 30 31 31 32 33 34 35 36 36 36 37 37 38 39 40 41 41 41 41 41 42 42 42 42 42 42 42 42 42 42 42 43 44 44 43 43 44 44 44 44
30 30 30 29 29 30 31 31 32 33 34 35 35 36 36 37 38 38 39 40 40 41 41 41 41 41 42 42 42 41 41 41 41 41 41 41 42 41 42 42 42 43 42 42
29 29 29 29 30 31 31 32 32 33 33 34 35 35 36 37 37 37 37 38 39 40 40 40 40 40 40 40 40 39 40 40 40 40 40 40 40 40 40 41 41 41 42 42
27 28 30 31 31 32 33 33 32 32 32 33 34 34 34 34 34 34 35 36 36 37 38 38 37 38 38 38 38 38 38 38 38 38 38 38 38 38 38 39 39 40 40 40
26 27 28 28 29 29 30 30 31 30 30 31 32 32 31 31 32 32 33 33 34 35 35 35 36 36 36 36 37 36 36 36 36 36 36 36 36 36 37 37 37 38 39 39
26 26 27 27 27 27 27 28 28 29 30 30 30 30 30 30 30 30 31 31 32 33 34 34 34 35 35 35 35 35 35 35 34 34 34 35 34 34 35 36 37 38 38 38
26 26 26 26 26 26 26 27 27 28 29 29 30 31 31 31 30 30 30 31 32 32 33 33 33 33 33 34 34 34 34 34 33 33 33 33 33 34 35 36 36 37 38 38
24 25 25 25 25 25 25 25 25 26 27 28 28 29 30 31 31 31 31 31 30 31 32 32 32 33 33 33 33 33 33 33 33 33 33 33 33 34 35 35 36 36 37 38
22 23 23 24 24 24 24 23 23 24 25 26 27 28 28 29 30 30 30 30 30 30 31 31 32 33 33 33 33 33 33 33 33 33 33 33 34 34 35 35 35 36 36 36
20 21 22 23 23 23 23 23 23 23 24 25 25 26 27 28 29 29 29 30 30 30 31 31 31 32 32 32 32 32 32 32 33 33 33 33 34 34 34 34 35 35 35 35
18 19 20 22 22 23 23 23 23 24 23 24 25 26 26 27 28 28 28 28 28 29 29 29 30 30 31 31 32 32 31 32 32 32 32 32 32 33 33 33 34 34 34 34
19 19 19 20 21 22 23 23 23 23 24 24 24 25 25 25 26 26 27 27 28 28 28 28 28 29 30 30 30 31 30 31 31 31 31 31 32 32 32 33 33 33 33 32
19 19 19 20 21 21 22 21 22 22 23 23 23 24 24 24 24 24 25 26 26 26 27 27 27 28 28 28 28 29 29 29 29 30 30 31 31 31 32 32 32 32 31 31
19 19 19 20 20 21 21 21 21 21 22 22 22 22 22 23 23 24 24 24 24 24 25 25 26 26 26 27 27 27 27 28 29 29 29 29 30 30 29 29 29 28 28 28
19 19 19 19 20 20 20 21 21 21 21 21 21 21 22 22 23 23 23 24 24 24 24 25 25 26 26 26 26 26 27 27 27 27 27 27 27 27 26 26 26 26 26 26
19 20 20 20 20 20 21 21 21 21 20 20 20 20 21 21 22 22 23 23 24 24 24 25 25 25 25 25 25 25 25 25 25 25 25 25 25 24 24 24 24 25 25 25
19 19 19 20 21 21 21 21 21 21 21 21 21 21 21 21 21 22 22 23 23 23 23 24 24 24 24 24 24 24 24 23 23 24 23 23 22 22 22 22 23 23 23 23
18 18 18 18 19 20 21 21 21 21 21 21 21 21 21 22 22 22 22 22 22 22 22 23 23 23 23 23 23 23 23 22 22 22 21 21 21 21 21 21 21 21 21 21
17 17 17 18 18 19 19 20 21 21 21 21 21 21 21 21 22 22 22 22 22 22 22 22 23 23 22 22 22 22 21 21 20 20 20 20 20 20 20 20 20 20 20 20
17 17 17 17 17 17 17 17 18 18 19 19 20 20 21 21 21 21 21 22 22 22 22 22 22 21 21 21 20 20 19 19 19 19 19 19 19 19 19 19 19 19 19 18
Wind_Direction
239 240 240 240 239 239 240 242 245 248 250 251 253 255 256 256 256 256 255 255 256 256 257 257 257 258 259 260 262 264 265 267 269 270 272 273 274 276 277 277 278 279 280 280
240 239 241 240 239 240 240 242 244 246 248 250 252 254 254 254 255 255 255 255 255 256 255 256 257 258 258 260 263 265 267 269 270 271 273 274 275 276 276 277 278 279 280 281
238 239 241 242 241 242 243 243 245 246 248 248 249 251 251 251 253 254 254 254 255 255 254 255 257 259 260 262 264 266 268 270 272 272 273 274 275 275 276 277 278 280 281 282
238 238 241 242 243 244 244 244 245 246 246 247 249 251 252 252 253 253 254 255 256 257 256 257 258 259 261 263 265 267 269 271 272 272 273 274 274 275 276 277 278 280 281 283
240 240 242 242 245 247 247 246 246 248 247 248 250 252 252 253 254 254 255 258 258 259 258 259 260 262 263 265 266 268 269 270 272 273 273 273 274 276 277 278 279 281 282 283
242 244 245 244 246 249 249 248 247 249 250 251 251 251 252 253 255 256 257 259 260 260 260 260 261 263 265 266 267 268 269 271 272 273 273 274 274 276 277 278 280 281 283 284
246 248 249 248 249 250 251 251 251 252 253 254 253 253 253 254 254 255 256 257 259 260 261 261 262 263 265 266 267 269 270 271 272 273 274 274 276 277 278 279 281 282 283 285
247 248 248 251 251 249 250 250 250 252 253 254 254 254 254 254 254 254 255 257 259 260 261 262 263 263 264 265 267 268 269 271 272 273 274 276 277 278 279 281 282 283 285 286
244 246 247 249 250 250 250 251 250 251 251 252 254 254 255 255 255 255 256 257 258 260 261 262 263 264 264 264 266 267 268 270 272 273 275 277 277 278 280 282 283 285 286 287
244 246 247 248 249 251 252 252 252 251 252 253 254 255 256 256 256 256 257 257 259 260 261 262 263 264 264 264 265 267 268 270 272 274 275 277 278 279 281 282 284 285 286 288
245 246 249 250 252 253 252 252 252 251 251 253 254 254 255 255 255 256 257 258 259 261 262 263 263 263 264 265 266 268 270 271 272 273 275 277 278 280 281 282 284 286 287 289
245 245 248 250 251 252 252 252 252 252 252 252 254 254 255 255 255 257 258 259 260 261 262 263 263 264 264 265 266 268 270 271 272 273 275 276 277 279 281 283 285 287 288 290
248 248 248 249 250 251 252 253 253 253 253 252 253 254 255 255 257 259 260 261 262 263 263 263 264 264 264 266 266 267 269 271 271 273 274 276 277 279 280 283 285 288 290 291
250 249 248 249 251 252 254 256 256 255 254 253 254 256 256 257 259 261 262 263 263 263 264 264 264 264 265 266 267 268 269 271 272 273 275 276 278 279 281 283 285 288 290 293
250 249 249 249 251 253 255 256 256 255 254 254 255 257 259 259 259 260 260 261 262 263 262 263 264 265 266 267 268 269 271 272 272 273 275 277 279 281 283 285 287 289 290 292
251 250 251 252 252 254 255 255 255 254 254 255 257 258 259 259 259 259 259 260 262 263 264 264 265 265 266 267 268 269 270 270 271 273 275 278 280 282 284 286 288 290 291 292
254 254 254 253 253 253 254 254 256 256 257 258 259 260 260 259 259 259 261 261 261 262 263 264 266 267 268 268 269 270 270 269 270 273 276 278 280 283 285 286 288 290 291 293
258 259 259 257 255 254 255 257 259 258 258 261 261 260 260 260 260 261 262 261 261 264 265 266 267 268 268 268 268 269 269 269 270 274 276 278 280 283 285 286 288 290 291 292
261 261 262 259 258 259 260 261 261 261 262 262 262 261 261 261 262 262 263 263 264 266 266 267 268 270 271 270 269 269 269 270 272 274 276 278 280 283 284 286 288 290 292 292
264 264 263 262 261 262 261 261 263 263 263 263 262 262 261 261 261 263 264 266 267 268 268 269 271 272 273 272 271 272 272 272 273 276 278 279 281 284 286 288 289 290 292 293
264 264 264 265 265 263 262 262 264 266 266 265 265 264 262 262 263 264 265 266 267 268 270 271 272 273 275 274 273 274 275 275 276 278 279 282 284 285 287 289 290 291 292 294
262 262 263 265 264 263 262 262 264 267 268 267 266 265 265 264 265 266 267 268 269 270 271 271 272 273 275 275 274 275 276 277 277 279 281 283 285 286 287 288 289 291 294 296
265 265 265 266 265 264 264 264 264 265 267 267 268 269 269 269 268 268 269 270 270 271 271 272 272 273 275 274 274 274 275 276 277 279 282 284 286 286 287 288 290 292 295 297
267 268 267 267 266 264 263 264 264 265 266 269 271 273 273 272 272 271 271 271 272 272 272 273 272 272 274 274 273 275 276 276 277 280 282 284 285 286 288 290 292 294 297 298
267 268 268 268 268 267 265 265 265 265 266 269 272 274 275 274 272 272 271 271 271 272 273 274 273 273 274 274 275 275 275 275 277 279 281 283 285 287 290 292 294 296 298 300
267 268 268 269 270 270 268 266 265 265 266 268 270 274 275 274 273 272 271 270 271 271 272 273 273 273 274 274 274 274 274 275 276 277 280 282 285 287 290 292 294 297 299 301
267 268 269 269 270 270 269 267 266 266 267 269 272 274 275 276 275 274 272 270 270 270 271 271 272 272 272 273 273 273 273 276 277 278 280 282 284 287 290 293 295 297 299 300
Height
5558 5562 5566 5571 5576 5580 5584 5588 5592 5597 5600 5603 5605 5608 5611 5613 5616 5618 5620 5622 5624 5626 5628 5630 5632 5633 5635 5636 5638 5639 5640 5641 5641 5641 5640 5640 5639 5638 5637 5635 5634 5632 5630 5628
5550 5554 5558 5562 5567 5571 5575 5579 5583 5586 5590 5594 5596 5598 5601 5603 5606 5608 5611 5612 5614 5616 5618 5620 5622 5623 5625 5626 5627 5628 5629 5629 5629 5629 5629 5628 5627 5626 5625 5624 5622 5620 5618 5616
5543 5546 5549 5554 5560 5564 5567 5571 5574 5577 5582 5584 5586 5589 5592 5594 5597 5599 5601 5603 5605 5607 5608 5610 5612 5613 5614 5616 5617 5618 5618 5618 5618 5618 5617 5616 5615 5614 5613 5612 5610 5608 5606 5603
5534 5539 5543 5550 5552 5555 5558 5562 5565 5568 5571 5575 5577 5580 5582 5585 5587 5590 5592 5594 5596 5597 5599 5600 5602 5603 5604 5606 5606 5607 5607 5607 5607 5606 5605 5604 5603 5602 5601 5600 5598 5596 5593 5591
5527 5530 5534 5540 5544 5547 5550 5553 5556 5559 5562 5565 5568 5570 5573 5575 5577 5579 5582 5584 5586 5587 5589 5590 5592 5593 5594 5595 5595 5596 5596 5596 5595 5594 5593 5592 5591 5590 5589 5587 5586 5583 5581 5579
5520 5523 5527 5533 5536 5538 5541 5544 5547 5549 5552 5556 5558 5561 5563 5565 5567 5570 5572 5574 5575 5577 5578 5580 5581 5582 5583 5584 5584 5585 5585 5584 5584 5582 5582 5581 5580 5578 5577 5575 5573 5571 5569 5567
5513 5516 5519 5524 5527 5530 5534 5537 5538 5540 5543 5545 5548 5551 5553 5555 5557 5559 5561 5563 5565 5566 5568 5569 5570 5571 5572 5573 5573 5573 5573 5573 5572 5571 5570 5569 5568 5567 5565 5563 5561 5559 5557 5555
5506 5509 5515 5516 5519 5522 5524 5526 5528 5531 5533 5536 5538 5541 5543 5545 5547 5549 5551 5553 5554 5555 5557 5558 5559 5560 5561 5561 5562 5562 5561 5561 5561 5560 5559 5558 5557 5555 5554 5552 5550 5548 5545 5543
5501 5505 5506 5509 5511 5513 5515 5517 5519 5522 5524 5527 5529 5531 5533 5535 5537 5539 5541 5542 5544 5545 5546 5547 5548 5548 5549 5550 5550 5550 5550 5550 5550 5549 5548 5547 5545 5544 5543 5541 5539 5536 5534 5531
5493 5496 5498 5501 5503 5505 5507 5509 5511 5513 5515 5518 5520 5522 5523 5525 5527 5529 5530 5532 5533 5534 5535 5536 5537 5537 5538 5538 5539 5539 5540 5539 5539 5538 5537 5536 5535 5533 5532 5530 5528 5525 5523 5520
5486 5489 5491 5493 5495 5497 5499 5500 5502 5504 5507 5509 5511 5513 5514 5516 5517 5519 5520 5522 5523 5524 5525 5526 5526 5526 5527 5528 5528 5529 5529 5529 5528 5528 5527 5526 5525 5523 5521 5519 5517 5514 5512 5509
5480 5482 5484 5486 5487 5489 5491 5492 5494 5496 5498 5500 5502 5504 5505 5506 5508 5509 5511 5512 5513 5514 5515 5515 5516 5516 5517 5517 5518 5518 5519 5518 5518 5517 5517 5516 5514 5513 5510 5508 5506 5503 5500 5497
5473 5475 5476 5478 5480 5482 5483 5485 5486 5488 5489 5491 5493 5494 5496 5498 5499 5500 5501 5502 5503 5504 5505 5506 5506 5507 5507 5508 5508 5508 5508 5508 5508 5507 5506 5505 5504 5503 5501 5499 5496 5493 5490 5487
5466 5468 5469 5471 5473 5474 5476 5477 5478 5479 5481 5483 5484 5486 5488 5489 5491 5492 5493 5493 5494 5495 5495 5496 5497 5497 5497 5498 5498 5498 5498 5498 5498 5497 5496 5495 5494 5493 5491 5489 5487 5484 5480 5477
5459 5461 5463 5464 5466 5467 5468 5469 5471 5472 5473 5474 5476 5477 5479 5480 5482 5483 5484 5484 5485 5486 5486 5487 5487 5488 5488 5488 5488 5488 5488 5488 5488 5487 5487 5486 5484 5483 5481 5479 5477 5474 5471 5467
5453 5455 5456 5458 5459 5460 5461 5462 5463 5464 5465 5467 5468 5469 5470 5472 5473 5474 5474 5475 5476 5477 5477 5478 5478 5478 5478 5478 5478 5478 5478 5478 5478 5478 5477 5476 5475 5473 5471 5469 5467 5464 5461 5457
5447 5449 5450 5451 5452 5453 5454 5456 5457 5458 5458 5459 5460 5461 5462 5463 5464 5465 5466 5467 5467 5468 5468 5469 5469 5469 5469 5469 5469 5469 5469 5469 5469 5468 5467 5466 5465 5463 5461 5459 5457 5454 5451 5448
5442 5443 5444 5445 5446 5447 5448 5449 5450 5451 5452 5452 5453 5454 5455 5455 5456 5457 5457 5458 5459 5459 5459 5459 5459 5460 5460 5459 5459 5459 5459 5459 5459 5458 5457 5456 5455 5453 5451 5449 5447 5445 5442 5438
5436 5437 5438 5439 5439 5440 5441 5442 5443 5444 5445 5445 5446 5446 5447 5448 5448 5449 5449 5450 5450 5451 5451 5451 5451 5451 5451 5450 5450 5450 5450 5450 5449 5449 5448 5447 5445 5444 5442 5440 5438 5435 5432 5430
5431 5432 5432 5433 5433 5434 5435 5436 5436 5437 5438 5438 5439 5439 5440 5440 5441 5441 5441 5442 5442 5442 5442 5442 5442 5442 5442 5442 5442 5441 5441 5441 5440 5439 5438 5437 5436 5434 5432 5430 5428 5426 5423 5421
5425 5426 5426 5427 5427 5428 5429 5429 5430 5431 5431 5431 5432 5432 5432 5433 5433 5434 5434 5434 5434 5434 5434 5434 5434 5434 5434 5433 5433 5433 5432 5432 5431 5430 5429 5428 5427 5425 5423 5421 5419 5417 5415 5412
5420 5420 5420 5421 5421 5422 5422 5423 5424 5424 5424 5425 5425 5425 5425 5425 5426 5426 5426 5426 5426 5426 5426 5426 5426 5426 5426 5425 5425 5425 5424 5423 5423 5422 5421 5419 5418 5416 5415 5413 5411 5409 5407 5405
5414 5414 5414 5415 5415 5415 5416 5417 5417 5418 5418 5418 5418 5419 5418 5418 5418 5419 5419 5419 5419 5419 5419 5418 5418 5418 5418 5417 5417 5417 5416 5416 5415 5414 5413 5412 5410 5409 5407 5405 5404 5402 5399 5397
5407 5408 5408 5408 5408 5409 5409 5410 5410 5411 5412 5412 5412 5412 5412 5412 5411 5411 5411 5411 5411 5411 5411 5411 5411 5410 5410 5410 5410 5409 5409 5408 5407 5406 5405 5404 5403 5401 5400 5398 5396 5394 5392 5390
5402 5402 5402 5402 5402 5402 5403 5403 5404 5404 5405 5405 5405 5405 5405 5404 5404 5404 5404 5404 5404 5404 5404 5403 5403 5403 5403 5402 5402 5402 5401 5401 5400 5399 5398 5397 5396 5395 5393 5391 5389 5387 5385 5383
5396 5396 5396 5396 5396 5396 5396 5397 5397 5398 5398 5398 5398 5398 5398 5398 5398 5397 5397 5397 5397 5397 5396 5396 5396 5396 5395 5395 5395 5394 5394 5394 5393 5392 5391 5390 5389 5388 5386 5385 5383 5381 5379 5377
5391 5391 5391 5391 5391 5391 5391 5391 5391 5391 5392 5392 5392 5392 5391 5391 5391 5390 5390 5390 5389 5389 5389 5389 5388 5388 5388 5388 5388 5387 5387 5387 5386 5386 5385 5384 5383 5381 5380 5378 5377 5375 5373 5371